Location: El Castaño
(10.3135°N, 67.5574°W)
Time: 04:36:40
(UTC+00:00)

Meteor PRIRODA - Pass Details

Date: 13 June 2024
Orbit: 438 x 449 km, 97.5° (Epoch: 19 July)

Event Time Altitude Azimuth Distance (km) Brightness Sun altitude
Exits shadow 23:37:54 11° 154° (SSE) 1,525 5.6 -11.0°
Maximum altitude 23:41:03 50° 78° (ENE) 576 3.6 -11.7°
Drops below altitude 10° 23:44:18 10° 2° (N) 1,557 6.5 -12.4°
Sets 23:46:20 0° 357° (N) 2,423 7.5 -12.9°
